Weather History for Mexia Limestone County Airpor, TX

Change the Weather History Date:

Sunday, April 13, 2014

  Actual Average (KACT) Record (KACT)
Temperature  
Mean Temperature 69 °F 65 °F  
Max Temperature 74 °F 77 °F 96 °F (1902)
Min Temperature 64 °F 54 °F 31 °F (1940)
Degree Days  
Heating Degree Days 0 3  
Month to date heating degree days 50  
Since 1 July heating degree days 2108  
Cooling Degree Days 4 3  
Month to date cooling degree days 34  
Year to date cooling degree days 77  
Growing Degree Days 19 (Base 50)    
Moisture  
Dew Point 65 °F    
Average Humidity 87    
Maximum Humidity 93    
Minimum Humidity 79    
Precipitation  
Precipitation 0.09 in 0.08 in 2.50 in (1902)
Month to date precipitation 0.99  
Year to date precipitation 8.89  
Snow  
Snow 0.00 in 0.00 in 0.00 in ()
Month to date snowfall 0.1  
Since 1 July snowfall 1.1  
Snow Depth -    
Sea Level Pressure  
Sea Level Pressure 29.76 in    
Wind  
Wind Speed 13 mph (SSE)    
Max Wind Speed 21 mph    
Max Gust Speed 29 mph    
Visibility 10 miles    
Events Rain , Thunderstorm    
T = Trace of Precipitation, MM = Missing Value Source: NWS Daily Summary

Daily Weather History Graph

Daily Weather History Graph

Search for Another Location

Airport:

Trip Planner

Search our weather history database for the weather conditions in past years. The results will help you decide how hot, cold, wet, or windy it might be!

Date:

Astronomy

Apr. 13, 2014 Rise Set
Actual Time 6:59 AM CDT 7:53 PM CDT
Civil Twilight 6:35 AM CDT 8:18 PM CDT
Nautical Twilight 6:05 AM CDT 8:48 PM CDT
Astronomical Twilight 5:35 AM CDT 9:18 PM CDT
Moon 6:37 PM CDT (4/13) 5:53 AM CDT (4/13)
Length of Visible Light 13h 43m
Length of Day
12h 53m
Waxing Gibbous, 97% of the Moon is Illuminated
Apr 13
Waxing Gibbous
Apr 15
Full
Apr 22
Last Quarter
Apr 29
New
May 6
First Quarter

Hourly Weather History & Observations

Time (CDT) Temp. Dew Point Humidity Pressure Visibility Wind Dir Wind Speed Gust Speed Precip Events Conditions
12:15 AM 67.3 °F 60.4 °F 79% 29.85 in 10.0 mi SSE 17.3 mph 23.0 mph N/A   Scattered Clouds
12:35 AM 66.6 °F 60.8 °F 82% 29.85 in 10.0 mi SSE 16.1 mph 23.0 mph N/A   Scattered Clouds
12:55 AM 66.2 °F 60.3 °F 81% 29.84 in 10.0 mi SSE 15.0 mph 21.9 mph N/A   Clear
1:15 AM 65.5 °F 60.1 °F 83% 29.84 in 10.0 mi SSE 17.3 mph 23.0 mph N/A   Clear
1:35 AM 65.1 °F 60.1 °F 84% 29.84 in 10.0 mi South 13.8 mph 20.7 mph N/A   Clear
1:55 AM 64.8 °F 59.9 °F 84% 29.84 in 10.0 mi South 13.8 mph 17.3 mph N/A   Clear
2:15 AM 64.6 °F 60.1 °F 85% 29.84 in 10.0 mi South 15.0 mph - N/A   Clear
2:35 AM 64.4 °F 60.1 °F 86% 29.84 in 10.0 mi South 12.7 mph 19.6 mph N/A   Mostly Cloudy
2:55 AM 64.4 °F 60.1 °F 86% 29.84 in 10.0 mi South 13.8 mph - N/A   Mostly Cloudy
3:15 AM 64.6 °F 60.1 °F 85% 29.84 in 10.0 mi South 12.7 mph 23.0 mph N/A   Mostly Cloudy
3:35 AM 64.6 °F 60.3 °F 86% 29.83 in 10.0 mi South 12.7 mph - N/A   Mostly Cloudy
3:55 AM 64.9 °F 60.4 °F 85% 29.83 in 10.0 mi South 11.5 mph 17.3 mph N/A   Overcast
4:15 AM 64.9 °F 60.8 °F 86% 29.83 in 10.0 mi South 9.2 mph - N/A   Overcast
4:35 AM 65.3 °F 61.0 °F 86% 29.84 in 10.0 mi South 10.4 mph - N/A   Overcast
4:55 AM 65.3 °F 61.3 °F 87% 29.84 in 10.0 mi South 8.1 mph - N/A   Overcast
5:15 AM 65.3 °F 61.7 °F 88% 29.84 in 10.0 mi South 6.9 mph - N/A   Overcast
5:35 AM 65.3 °F 61.7 °F 88% 29.84 in 10.0 mi SSE 6.9 mph - N/A   Overcast
5:55 AM 65.3 °F 61.9 °F 89% 29.84 in 10.0 mi SSE 6.9 mph - N/A   Overcast
6:15 AM 65.3 °F 62.1 °F 89% 29.84 in 10.0 mi SSE 8.1 mph - N/A   Overcast
6:35 AM 64.9 °F 62.2 °F 91% 29.83 in 10.0 mi SE 5.8 mph - N/A   Overcast
6:55 AM 64.8 °F 62.2 °F 92% 29.83 in 10.0 mi SE 6.9 mph - N/A   Overcast
7:15 AM 64.8 °F 62.6 °F 93% 29.83 in 10.0 mi SE 5.8 mph - N/A   Overcast
7:35 AM 64.8 °F 62.6 °F 93% 29.81 in 10.0 mi SE 12.7 mph - N/A   Overcast
7:55 AM 64.9 °F 62.8 °F 93% 29.79 in 10.0 mi SE 13.8 mph 19.6 mph N/A   Mostly Cloudy
8:15 AM 66.0 °F 63.5 °F 92% 29.81 in 10.0 mi SSE 8.1 mph 17.3 mph N/A   Scattered Clouds
8:35 AM 66.7 °F 64.4 °F 92% 29.81 in 10.0 mi SSE 6.9 mph - N/A   Overcast
8:55 AM 67.3 °F 64.6 °F 91% 29.80 in 10.0 mi SE 12.7 mph 17.3 mph N/A   Overcast
9:15 AM 68.2 °F 65.1 °F 90% 29.79 in 10.0 mi SSE 15.0 mph 20.7 mph N/A   Overcast
9:35 AM 68.9 °F 65.5 °F 89% 29.79 in 10.0 mi SSE 13.8 mph 21.9 mph N/A   Overcast
9:55 AM 70.2 °F 66.2 °F 87% 29.79 in 10.0 mi SSE 16.1 mph 24.2 mph N/A   Overcast
10:15 AM 71.2 °F 66.6 °F 85% 29.81 in 10.0 mi South 16.1 mph 20.7 mph N/A   Overcast
10:35 AM 71.6 °F 66.7 °F 85% 29.80 in 10.0 mi South 16.1 mph 23.0 mph N/A   Overcast
10:55 AM 72.0 °F 66.9 °F 84% 29.80 in 10.0 mi South 16.1 mph 23.0 mph N/A   Overcast
11:15 AM 72.5 °F 67.3 °F 84% 29.81 in 10.0 mi South 13.8 mph 20.7 mph N/A Thunderstorm Overcast
11:35 AM 72.5 °F 67.1 °F 83% 29.81 in 10.0 mi South 10.4 mph - N/A   Overcast
11:55 AM 72.1 °F 67.1 °F 84% 29.81 in 10.0 mi South 13.8 mph 20.7 mph N/A   Overcast
12:15 PM 71.6 °F 67.1 °F 86% 29.81 in 10.0 mi South 9.2 mph 17.3 mph N/A   Overcast
12:35 PM 72.1 °F 67.3 °F 85% 29.81 in 10.0 mi South 12.7 mph - N/A   Light Drizzle
1:15 PM 73.9 °F 67.6 °F 81% 29.79 in 10.0 mi South 13.8 mph 20.7 mph N/A   Mostly Cloudy
1:35 PM 74.3 °F 67.8 °F 80% 29.78 in 10.0 mi South 13.8 mph - N/A   Overcast
1:55 PM 72.3 °F 68.4 °F 87% 29.78 in 4.0 mi South 11.5 mph 23.0 mph 0.07 in Rain Heavy Rain
2:15 PM 72.1 °F 69.1 °F 90% 29.78 in 10.0 mi SSW 9.2 mph - N/A   Overcast
2:35 PM 73.0 °F 69.4 °F 88% 29.77 in 10.0 mi SSW 8.1 mph - N/A   Mostly Cloudy
2:55 PM 72.5 °F 68.9 °F 88% 29.76 in 10.0 mi South 12.7 mph 17.3 mph N/A Rain Light Rain
3:15 PM 71.6 °F 68.9 °F 91% 29.71 in 7.0 mi SE 12.7 mph - 0.01 in Rain Rain
3:35 PM 71.1 °F 68.7 °F 92% 29.69 in 10.0 mi SSE 12.7 mph 25.3 mph 0.02 in   Light Drizzle
3:55 PM 71.2 °F 68.4 °F 91% 29.67 in 10.0 mi SSE 18.4 mph 25.3 mph 0.02 in   Scattered Clouds
4:35 PM 72.0 °F 67.8 °F 87% 29.65 in 10.0 mi SSE 17.3 mph 24.2 mph N/A   Clear
4:55 PM 72.9 °F 68.4 °F 86% 29.63 in 10.0 mi SSE 18.4 mph 25.3 mph N/A   Scattered Clouds
5:15 PM 72.9 °F 68.7 °F 87% 29.64 in 10.0 mi SSE 20.7 mph 27.6 mph N/A   Scattered Clouds
5:35 PM 73.4 °F 68.4 °F 84% 29.64 in 10.0 mi South 18.4 mph 28.8 mph N/A   Mostly Cloudy
5:55 PM 73.6 °F 68.4 °F 84% 29.63 in 10.0 mi SSE 18.4 mph 25.3 mph N/A   Overcast
6:15 PM 74.3 °F 68.4 °F 82% 29.64 in 10.0 mi SSE 16.1 mph 25.3 mph N/A   Overcast
6:35 PM 73.6 °F 68.2 °F 83% 29.65 in 10.0 mi South 17.3 mph 23.0 mph N/A   Overcast
6:55 PM 73.2 °F 68.0 °F 84% 29.66 in 10.0 mi South 16.1 mph 23.0 mph N/A   Overcast
7:15 PM 73.0 °F 67.8 °F 84% 29.67 in 10.0 mi South 12.7 mph 20.7 mph N/A   Overcast
7:35 PM 72.9 °F 67.5 °F 83% 29.69 in 10.0 mi South 15.0 mph 18.4 mph N/A   Overcast
7:55 PM 72.5 °F 67.5 °F 84% 29.69 in 10.0 mi South 6.9 mph - N/A   Overcast
8:15 PM 71.8 °F 67.1 °F 85% 29.69 in 10.0 mi South 8.1 mph - N/A   Mostly Cloudy
8:35 PM 71.8 °F 67.1 °F 85% 29.69 in 10.0 mi South 10.4 mph - N/A   Scattered Clouds
8:55 PM 71.6 °F 67.1 °F 86% 29.69 in 10.0 mi South 11.5 mph - N/A   Clear
9:15 PM 71.2 °F 67.1 °F 87% 29.69 in 10.0 mi South 11.5 mph - N/A   Clear
9:35 PM 71.1 °F 67.1 °F 87% 29.68 in 10.0 mi SSE 10.4 mph - N/A   Clear
9:55 PM 70.7 °F 67.1 °F 88% 29.69 in 10.0 mi South 11.5 mph - N/A   Clear
10:15 PM 70.7 °F 67.3 °F 89% 29.68 in 10.0 mi South 15.0 mph - N/A   Clear
10:35 PM 70.5 °F 67.3 °F 89% 29.68 in 10.0 mi South 13.8 mph - N/A   Clear
10:55 PM 70.7 °F 67.5 °F 89% 29.69 in 10.0 mi South 11.5 mph - N/A   Clear
11:15 PM 70.2 °F 67.1 °F 90% 29.69 in 10.0 mi South 10.4 mph 17.3 mph N/A   Clear
11:35 PM 70.2 °F 67.5 °F 91% 29.68 in 10.0 mi South 12.7 mph 17.3 mph N/A   Mostly Cloudy
11:55 PM 71.1 °F 67.8 °F 89% 29.68 in 10.0 mi South 13.8 mph 18.4 mph N/A   Overcast